Location: Freistadt
(48.5112°N, 14.5013°E)
Time: 20:31:38
(UTC+02:00)

M-CUBED/EXP-1 PRIME - Pass Details

Date: 03 April 2023
Orbit: 405 x 573 km, 101.7° (Epoch: 31 May)

Event Time Altitude Azimuth Distance (km) Brightness Sun altitude
Rises 02:01:56 0° 18° (NNE) 2,832 ? -35.0°
Reaches altitude 10° 02:04:08 10° 17° (NNE) 1,915 ? -34.8°
Enters shadow 02:05:15 18° 17° (NNE) 1,457 ? -34.8°
